Time,TemperatureF,DewpointF,PressureIn,WindDirection,WindDirectionDegrees,WindSpeedMPH,WindSpeedGustMPH,Humidity,HourlyPrecipIn,Conditions,Clouds,dailyrainin,SoftwareType,DateUTC
2013-02-04 14:34:00,66.0,48.8,20.87,South,180,0.0,0.0,54,0.00,,,0.00,Weather View 32 v70,2013-02-04 19:34:00,
2013-02-04 14:39:00,66.0,48.8,20.46,South,180,0.0,0.0,54,0.00,,,0.00,Weather View 32 v70,2013-02-04 19:39:00,
2013-02-04 14:44:00,66.0,48.8,20.46,ESE,112,0.0,0.0,54,0.00,,,0.00,Weather View 32 v70,2013-02-04 19:44:00,
2013-02-04 14:49:00,66.0,48.8,20.62,ESE,112,0.0,0.0,54,0.00,,,0.00,Weather View 32 v70,2013-02-04 19:49:00,
2013-02-04 14:54:00,66.0,49.3,20.62,East,90,0.0,0.0,55,0.00,,,0.00,Weather View 32 v70,2013-02-04 19:54:00,
2013-02-04 14:59:00,66.0,49.3,19.98,East,90,0.0,0.0,55,0.00,,,0.00,Weather View 32 v70,2013-02-04 19:59:00,
2013-02-04 15:04:00,66.0,49.3,19.98,East,90,0.0,0.0,55,0.00,,,0.00,Weather View 32 v70,2013-02-04 20:04:00,
2013-02-04 15:09:00,66.0,49.3,19.63,SE,135,0.0,0.0,55,0.00,,,0.00,Weather View 32 v70,2013-02-04 20:09:00,
2013-02-04 15:14:00,66.0,49.3,19.63,SE,135,0.0,0.0,55,0.00,,,0.00,Weather View 32 v70,2013-02-04 20:14:00,
2013-02-04 15:19:00,66.0,49.3,19.38,SE,135,0.0,0.0,55,0.00,,,0.00,Weather View 32 v70,2013-02-04 20:19:00,
2013-02-04 15:24:00,66.0,49.3,19.38,ENE,67,0.0,0.0,55,0.00,,,0.00,Weather View 32 v70,2013-02-04 20:24:00,
2013-02-04 15:29:00,67.0,50.3,19.21,ENE,67,0.0,0.0,55,0.00,,,0.00,Weather View 32 v70,2013-02-04 20:29:00,
2013-02-04 15:35:00,66.0,49.3,19.21,ENE,67,0.0,0.0,55,0.00,,,0.00,Weather View 32 v70,2013-02-04 20:35:00,
2013-02-04 15:40:00,66.0,49.3,18.99,ENE,67,0.0,0.0,55,0.00,,,0.00,Weather View 32 v70,2013-02-04 20:40:00,
2013-02-04 15:44:00,67.0,50.3,18.99,ESE,112,0.0,0.0,55,0.00,,,0.00,Weather View 32 v70,2013-02-04 20:44:00,
2013-02-04 15:49:00,67.0,50.3,18.85,ESE,112,0.0,0.0,55,0.00,,,0.00,Weather View 32 v70,2013-02-04 20:49:00,
2013-02-04 15:54:00,66.0,49.3,18.85,ESE,112,0.0,0.0,55,0.00,,,0.00,Weather View 32 v70,2013-02-04 20:54:00,
2013-02-04 15:59:00,66.0,49.3,18.68,ESE,112,0.0,0.0,55,0.00,,,0.00,Weather View 32 v70,2013-02-04 20:59:00,
2013-02-04 16:04:00,66.0,49.3,18.68,ESE,112,0.0,0.0,55,0.00,,,0.00,Weather View 32 v70,2013-02-04 21:04:00,
2013-02-04 16:09:00,66.0,49.3,18.55,ESE,112,0.0,0.0,55,0.00,,,0.00,Weather View 32 v70,2013-02-04 21:09:00,
2013-02-04 16:14:00,66.0,49.3,18.55,ESE,112,0.0,0.0,55,0.00,,,0.00,Weather View 32 v70,2013-02-04 21:14:00,
2013-02-04 16:19:00,66.0,49.3,18.43,ESE,112,0.0,0.0,55,0.00,,,0.00,Weather View 32 v70,2013-02-04 21:19:00,
2013-02-04 16:24:00,66.0,49.3,18.43,ESE,112,0.0,0.0,55,0.00,,,0.00,Weather View 32 v70,2013-02-04 21:24:00,
2013-02-04 16:29:00,66.0,49.3,18.33,ESE,112,0.0,0.0,55,0.00,,,0.00,Weather View 32 v70,2013-02-04 21:29:00,
2013-02-04 16:35:00,65.0,48.4,18.33,ESE,112,0.0,0.0,55,0.00,,,0.00,Weather View 32 v70,2013-02-04 21:35:00,
2013-02-04 16:39:00,65.0,48.4,18.24,ESE,112,0.0,0.0,55,0.00,,,0.00,Weather View 32 v70,2013-02-04 21:39:00,
2013-02-04 16:44:00,65.0,48.4,18.24,ESE,112,0.0,0.0,55,0.00,,,0.00,Weather View 32 v70,2013-02-04 21:44:00,
2013-02-04 16:49:00,65.0,48.4,18.17,ESE,112,0.0,0.0,55,0.00,,,0.00,Weather View 32 v70,2013-02-04 21:49:00,
2013-02-04 16:54:00,65.0,48.4,18.17,ESE,112,0.0,0.0,55,0.00,,,0.00,Weather View 32 v70,2013-02-04 21:54:00,
2013-02-04 16:59:00,65.0,48.4,18.13,ESE,112,0.0,0.0,55,0.00,,,0.00,Weather View 32 v70,2013-02-04 21:59:00,
2013-02-04 17:04:00,65.0,48.4,18.13,ESE,112,0.0,0.0,55,0.00,,,0.00,Weather View 32 v70,2013-02-04 22:04:00,
2013-02-04 17:09:00,65.0,48.4,18.09,ESE,112,0.0,0.0,55,0.00,,,0.00,Weather View 32 v70,2013-02-04 22:09:00,
2013-02-04 17:14:00,64.0,47.5,18.09,ESE,112,0.0,0.0,55,0.00,,,0.00,Weather View 32 v70,2013-02-04 22:14:00,
2013-02-04 17:19:00,64.0,47.5,18.07,ESE,112,0.0,0.0,55,0.00,,,0.00,Weather View 32 v70,2013-02-04 22:19:00,
2013-02-04 17:24:00,64.0,47.5,18.07,ESE,112,0.0,0.0,55,0.00,,,0.00,Weather View 32 v70,2013-02-04 22:24:00,
2013-02-04 17:29:00,64.0,47.5,18.05,ESE,112,0.0,0.0,55,0.00,,,0.00,Weather View 32 v70,2013-02-04 22:29:00,
2013-02-04 17:34:00,64.0,47.5,18.05,ESE,112,0.0,0.0,55,0.00,,,0.00,Weather View 32 v70,2013-02-04 22:34:00,
2013-02-04 17:39:00,64.0,47.5,18.04,ESE,112,0.0,0.0,55,0.00,,,0.00,Weather View 32 v70,2013-02-04 22:39:00,
2013-02-04 17:44:00,63.0,46.5,18.04,ESE,112,0.0,0.0,55,0.00,,,0.00,Weather View 32 v70,2013-02-04 22:44:00,
2013-02-04 17:49:00,63.0,46.5,18.03,ESE,112,0.0,0.0,55,0.00,,,0.00,Weather View 32 v70,2013-02-04 22:49:00,
2013-02-04 17:54:00,63.0,47.0,18.03,ESE,112,0.0,0.0,56,0.00,,,0.00,Weather View 32 v70,2013-02-04 22:54:00,
2013-02-04 17:59:00,62.0,46.1,18.03,ESE,112,0.0,0.0,56,0.00,,,0.00,Weather View 32 v70,2013-02-04 22:59:00,
2013-02-04 18:04:00,62.0,46.1,18.03,ESE,112,0.0,0.0,56,0.00,,,0.00,Weather View 32 v70,2013-02-04 23:04:00,
2013-02-04 18:09:00,61.0,45.2,18.02,ESE,112,0.0,0.0,56,0.00,,,0.00,Weather View 32 v70,2013-02-04 23:09:00,
2013-02-04 18:14:00,61.0,45.2,18.02,ESE,112,0.0,0.0,56,0.00,,,0.00,Weather View 32 v70,2013-02-04 23:14:00,
2013-02-04 18:19:00,60.0,44.2,18.01,ESE,112,0.0,0.0,56,0.00,,,0.00,Weather View 32 v70,2013-02-04 23:19:00,
2013-02-04 18:24:00,60.0,44.7,18.01,ESE,112,0.0,0.0,57,0.00,,,0.00,Weather View 32 v70,2013-02-04 23:24:00,
2013-02-04 19:11:00,56.0,49.2,18.01,ESE,112,0.0,0.0,78,0.00,,,0.00,Weather View 32 v70,2013-02-05 00:11:00,